Location: Bydgoszcz
(53.1603°N, 18.1626°E)
Time: 04:54:29
(UTC+01:00)

ISS - Visible Passes

Search period start: 24 November 2017 00:00
Search period end: 04 December 2017 00:00
Orbit: 402 x 407 km, 51.6° (Epoch: 24 November)

Date Brightness Start Highest point End Pass type
(mag) Time Alt. Az. Time Alt. Az. Time Alt. Az.
28 Nov -1.0 18:17:34 10° SSW 18:17:50 11° S 18:17:50 11° S visible
29 Nov -1.5 17:26:19 10° S 17:27:45 13° SE 17:27:45 13° SE visible
30 Nov -1.9 18:08:30 10° SW 18:10:15 23° SSW 18:10:15 23° SSW visible
01 Dec -2.1 17:16:37 10° SSW 17:19:12 21° SSE 17:20:01 19° SE visible
01 Dec -0.8 18:52:02 10° WSW 18:52:40 15° WSW 18:52:40 15° WSW visible
02 Dec -1.5 16:25:07 10° S 16:27:01 15° SE 16:28:55 10° ESE visible
02 Dec -2.8 17:59:46 10° SW 18:02:23 40° SSW 18:02:23 40° SSW visible
03 Dec -2.7 17:07:36 10° SW 17:10:37 33° SSE 17:12:04 22° ESE visible
03 Dec -1.1 18:43:34 10° WSW 18:44:42 20° WSW 18:44:42 20° WSW visible
